P/2010 JC81 ( WISE )

Japanese version
Home page
Updated on May 7, 2015

---------------------------------------------------------------------

* Profile

Discovery Date May 10, 2010
Magnitude
Discoverer Wide Field Infrared Survey Explorer (NASA)

* Pictures

* Orbital Elements

Epoch 2011 Apr. 29.0 TT = JDT 2455680.5
T 2011 Apr. 26.56117 TT                                 MPC
q   1.8107243            (2000.0)            P               Q
n   0.04243604     Peri.   12.57244     +0.75172638     -0.57675577
a   8.1404072      Node    30.76799     +0.53791199     +0.25572144
e   0.7775634      Incl.   38.69004     +0.38152083     +0.77586038
P  23.2
From 538 observations 2010 May 10-2013 June 12, mean residual 0".5.

* Finding Charts

* Magnitudes Graph

        H = 13.0  G = 0.15                        [    ,-120]  (             - 2010 Dec. 27)
        m1 =  7.0 + 5 log d + 20.0 log r(t - 75)  [-120,  75]  (2010 Dec. 27 - 2011 July 10)
        m1 =  8.3 + 5 log d + 15.0 log r(t - 75)  [  75, 300]  (2011 July 10 - 2012 Feb. 20)
        m1 = 11.3 + 5 log d +  7.5 log r          [ 300,    ]  (2012 Feb. 20 -             )

---------------------------------------------------------------------

The orbital elements are published on M.P.E.C. 2013-O31.
The charts are made with StellaNavigator Ver.8 (AstroArts).
The magnitudes graphs are made with Comet for Windows.

---------------------------------------------------------------------

Copyright(C) Seiichi Yoshida (comet@aerith.net). All rights reserved.